Home   Weather   Kiritimati   Past weeks

Flag for Kiribati Past Weather in Kiritimati, Christmas Island, Kiribati — Yesterday and Last 2 Weeks

Now
79 °F

Passing clouds.


Feels Like: 81 °F
Forecast: 77 / 81 °F
Wind: 9 mph from Southeast

Location: Christmas / Cassidy

Current Time: Sep 30, 2016 at 12:23:15 AM

Latest Report: Sep 30, 2016 at 12:00 AM


Visibility: N/A

Pressure: 29.86 "Hg

Humidity: 74%

Dew Point: 70 °F

Location of KiritimatiLocation

Past Weather in Kiritimati — Graph

°F

Kiritimati Temperature Yesterday

Maximum temperature yesterday: 84 °F (at 11:00 AM)
Minimum temperature yesterday: 79 °F (at 12:00 AM)
Average temperature yesterday: 81 °F

High & Low Weather Summary for the Past Weeks

 TemperatureHumidityPressure
High86 °F (Sep 15, 2:00 PM)89% (Sep 17, 2:00 AM)29.92 "Hg (Sep 17, 2:00 AM)
Low75 °F (Sep 18, 4:00 AM)59% (Sep 25, 12:00 PM)29.71 "Hg (Sep 28, 3:00 PM)
Average80 °F73%29.83 "Hg
* Reported Sep 14 11:00 PM — Sep 29 11:00 PM, Kiritimati, Weather by CustomWeather, © 2016

Note: Actual official high and low records may vary slightly from our data, if they occured in-between our weather recording intervals... More about our weather records

Advertising

Kiritimati Weather History for the Previous 24 Hours

Scroll right to see more
 ConditionsComfort  
Time TempWeatherWind HumidityBarometerVisibility
11:00 PM
Thu, Sep 29
81 °FPassing clouds.14 mph74%29.86 "HgN/A
10:00 PM81 °FPassing clouds.12 mph74%29.83 "HgN/A
9:00 PM81 °FPassing clouds.9 mph74%29.83 "HgN/A
8:00 PM79 °FPassing clouds.7 mph79%29.80 "HgN/A
7:00 PM79 °FPassing clouds.12 mph79%29.77 "HgN/A
6:00 PM81 °FPassing clouds.12 mph70%29.74 "HgN/A
5:00 PM82 °FPassing clouds.12 mph70%29.74 "HgN/A
4:00 PM82 °FScattered clouds.12 mph66%29.74 "HgN/A
3:00 PM84 °FScattered clouds.16 mph62%29.74 "HgN/A
2:00 PM84 °FScattered clouds.16 mph66%29.74 "HgN/A
1:00 PM84 °FScattered clouds.16 mph66%29.77 "HgN/A
12:00 PM84 °FScattered clouds.16 mph66%29.80 "HgN/A
11:00 AM84 °FScattered clouds.9 mph70%29.83 "HgN/A
10:00 AM82 °FScattered clouds.14 mph66%29.83 "HgN/A
9:00 AM82 °FScattered clouds.8 mph66%29.83 "HgN/A
8:00 AM81 °FScattered clouds.16 mph66%29.83 "HgN/A
7:00 AM79 °FPartly sunny.7 mph79%29.80 "HgN/A
6:00 AM79 °FScattered clouds.7 mph79%29.77 "HgN/A
5:00 AM79 °FBroken clouds.12 mph74%29.77 "HgN/A
4:00 AM79 °FPartly cloudy.16 mph79%29.77 "HgN/A
3:00 AM79 °FPartly cloudy.9 mph79%29.77 "HgN/A
2:00 AM79 °FPartly cloudy.7 mph79%29.77 "HgN/A
1:00 AM79 °FPassing clouds.9 mph70%29.77 "HgN/A
12:00 AM79 °FPassing clouds.12 mph70%29.80 "HgN/A
Weather by CustomWeather, © 2016

See weather overviewHow to use our weather pages